Epoch = 2011 Nov. 15.0 TT T = 2011 Oct. 29.46698 TT Peri. = 350.02942 e = 0.5801646 Node = 339.39820 2000.0 q = 2.0856514 AU Incl. = 5.65049 a = 4.9677836 AU n = 0.08901436 P = 11.07 years
m1 = 12.0 + 5 log d + 20.0 log r